Regional Weather Roundup
Issued by NWS State College, PA

Home | Current Version | Previous Version | Text Only | Print | Product List | Glossary Off
Versions: 1 2 3 4 5 6 7 8 9 10 11 12 13 14 15 16 17 18 19 20 21 22 23 24 25 26 27 28 29 30 31 32 33 34 35 36 37 38 39 40 41 42 43 44 45 46 47 48 49 50

000
ASUS41 KCTP 280603
RWRCTP

REGIONAL WEATHER ROUNDUP
NATIONAL WEATHER SERVICE STATE COLLEGE PA
100 AM EST TUE FEB 28 2017

Note: "fair" indicates few or no clouds below 12,000 feet with no
significant weather and/or obstructions to visibility.

* = STATION THAT DOES NOT REPORT PRECIPITATION /E.G. RAIN...SNOW...ETC/
    THUNDER OR FOG.

PAZ002>004-007>009-013>016-020>023-029>032-280700-
WESTERN PENNSYLVANIA

CITY           SKY/WX    TMP DP  RH WIND       PRES   REMARKS
ERIE           CLOUDY    43  36  76 S12       30.24S
MEADVILLE      CLOUDY    40  35  83 CALM      30.24S
FRANKLIN*      CLOUDY    39  34  81 S5        30.25S
NEW CASTLE     CLOUDY    38  37  97 CALM      30.25F
BEAVER COUNTY  NOT AVBL
BUTLER*        CLOUDY    37  36  93 CALM      30.26S
PITTSBURGH INT CLOUDY    39  39 100 CALM      30.24S
PITTSBURGH     CLOUDY    41  37  86 SE6       30.23F
INDIANA*       CLOUDY    41  39  93 CALM      30.28F
LATROBE        CLOUDY    37  37 100 CALM      30.26F FOG
WASHINGTON CO* CLOUDY    36  34  93 CALM      30.26S
$$

PAZ004>006-010>012-017>019-024>028-033>037-041-042-045-046-049>053-280700-
CENTRAL PENNSYLVANIA

CITY           SKY/WX    TMP DP  RH WIND       PRES   REMARKS
BRADFORD       CLOUDY    38  36  92 VRB6      30.24S
DUBOIS         CLOUDY    40  34  79 SE6       30.24F
CLEARFIELD       N/A    N/A N/A N/A MISG      30.27F
JOHNSTOWN      CLOUDY    41  33  73 S5        30.24F
ALTOONA        CLOUDY    41  34  76 CALM      30.29S
STATE COLLEGE  CLOUDY    37  35  90 CALM      30.29F
WILLIAMSPORT   CLOUDY    41  34  76 CALM      30.32F
SELINSGROVE    CLOUDY    36  33  89 CALM      30.34S
FT INDIANTOWN  CLOUDY    38  38  99 CALM      30.35S
CAPITAL CITY   CLOUDY    44  34  67 E3        30.35S
HARRISBURG     CLOUDY    41  36  82 CALM      30.34F
YORK           CLOUDY    36  33  89 CALM      30.34S
$$

PAZ038>040-043-044-047-048-054-055-060>062-067>071-280700-
EASTERN PENNSYLVANIA

CITY           SKY/WX    TMP DP  RH WIND       PRES   REMARKS
SCRANTON       MOCLDY    38  31  76 CALM      30.32F
MOUNT POCONO   CLOUDY    37  29  72 CALM      30.31F
ALLENTOWN      CLOUDY    38  32  79 CALM      30.36F
QUAKERTOWN*    PTCLDY    32  30  93 CALM      30.37S
READING        CLOUDY    38  36  92 CALM      30.36S
LANCASTER      CLOUDY    41  36  82 CALM      30.35S
COATESVILLE    CLOUDY    45  30  57 CALM      30.37S
POTTSTOWN      MOCLDY    38  31  76 CALM      30.38S
BLUE BELL      CLOUDY    37  32  81 CALM      30.36F
DOYLESTOWN     CLOUDY    38  33  82 CALM      30.36F
WILLOW GROVE   NOT AVBL
NORTH PHILA    CLOUDY    46  33  60 CALM      30.39S
PHILADELPHIA   CLOUDY    48  33  56 SW3       30.39S
$$



USA.gov is the U.S. government's official web portal to all federal, state and local government web resources and services.